Simultaneous Nadir Overpasses (SNOs) Predictions

Prediction of SNOs between GOES-14 and NOAA-20 Satellite Orbit:

Table of predicted SNOs for the next 14.0 days since TLE Epoch: 6/3/2023
Index Date Time (GOES-14) GOES-14 Lat,Lon NOAA-20 Lat,Lon Distance(km) Time Diff (sec)
1 06/03/2023 20:53:11 -0.03,-108.60 -0.80,-112.00 387.55 80
2 06/04/2023 20:37:07 -0.05,-108.61 0.24,-107.47 130.82 80
3 06/06/2023 08:56:14 0.01,-108.69 0.92,-112.74 460.98 80
4 06/07/2023 08:37:28 0.04,-108.70 -0.06,-108.20 56.54 80
5 06/09/2023 20:40:39 -0.02,-108.64 -0.11,-108.96 36.76 80
6 06/10/2023 20:24:35 -0.04,-108.65 0.94,-104.43 481.84 80
7 06/12/2023 08:43:42 0.01,-108.74 0.22,-109.70 108.81 80
8 06/13/2023 08:27:37 0.02,-108.75 -0.77,-105.16 409.07 80
9 06/14/2023 20:46:53 0.01,-108.68 -0.38,-110.46 203.11 80
10 06/15/2023 20:30:47 0.00,-108.69 0.61,-105.92 315.35 80
